| time (UTC) | temp C | wind direction | speed KPH | gust KPH | rain 1hr cm | rain 24hr cm | rain mn cm | humidity % | barometer mb |
| 20260503053017 | 11 | 24 | 0.0 | 0.0 | 0.00 | 0.51 | 0.00 | 91 | 1022.4 |
| 20260503051526 | 11 | 24 | 0.0 | 0.0 | 0.00 | 0.51 | 0.00 | 91 | 1022.4 |
| 20260503050024 | 11 | 24 | 0.0 | 0.0 | 0.00 | 0.53 | 0.00 | 90 | 1022.3 |
| 20260503044530 | 11 | 24 | 0.0 | 0.0 | 0.00 | 0.53 | 0.53 | 90 | 1022.3 |
| 20260503043015 | 11 | 24 | 0.0 | 0.0 | 0.00 | 0.53 | 0.53 | 89 | 1022.3 |
| 20260503041520 | 12 | 24 | 0.0 | 0.0 | 0.00 | 0.53 | 0.53 | 89 | 1022.0 |
| 20260503040030 | 12 | 24 | 0.0 | 0.0 | 0.00 | 0.53 | 0.53 | 88 | 1022.0 |
| 20260503034526 | 12 | 24 | 0.0 | 0.0 | 0.00 | 0.56 | 0.53 | 87 | 1022.1 |
| 20260503033048 | 12 | 24 | 0.0 | 0.0 | 0.00 | 0.56 | 0.53 | 86 | 1021.9 |
| 20260503031517 | 13 | 24 | 0.0 | 0.0 | 0.00 | 0.56 | 0.53 | 85 | 1021.8 |
| 20260503030025 | 13 | 24 | 0.0 | 0.0 | 0.00 | 0.56 | 0.53 | 83 | 1021.9 |
| 20260503024524 | 13 | 24 | 0.0 | 0.0 | 0.00 | 0.56 | 0.53 | 83 | 1021.6 |
| 20260503023041 | 14 | 24 | 0.0 | 0.0 | 0.00 | 0.56 | 0.53 | 82 | 1021.3 |
| 20260503021529 | 15 | 24 | 0.0 | 0.0 | 0.00 | 0.58 | 0.53 | 77 | 1021.0 |
| 20260503020018 | 15 | 24 | 0.0 | 0.0 | 0.00 | 0.58 | 0.53 | 71 | 1021.0 |
| 20260503014530 | 16 | 24 | 0.0 | 0.0 | 0.00 | 0.58 | 0.53 | 68 | 1021.0 |
| 20260503013027 | 16 | 24 | 0.0 | 0.0 | 0.00 | 0.58 | 0.53 | 65 | 1021.0 |
| 20260503011528 | 17 | 24 | 0.0 | 0.0 | 0.00 | 0.58 | 0.53 | 64 | 1020.7 |
| 20260503010032 | 17 | 24 | 0.0 | 0.0 | 0.00 | 0.61 | 0.53 | 67 | 1020.7 |
| 20260503004547 | 18 | 76 | 0.0 | 0.0 | 0.00 | 0.61 | 0.53 | 65 | 1020.6 |
| 20260503003026 | 18 | 141 | 0.0 | 4.8 | 0.00 | 0.61 | 0.53 | 62 | 1020.6 |
| 20260503001528 | 19 | 90 | 0.0 | 3.2 | 0.00 | 0.61 | 0.53 | 67 | 1020.5 |
| 20260503000003 | 20 | 149 | 0.0 | 1.6 | 0.00 | 0.61 | 0.53 | 62 | 1020.4 |
| 20260502234502 | 21 | 155 | 0.0 | 3.2 | 0.00 | 0.61 | 0.53 | 56 | 1020.4 |
| 20260502233003 | 21 | 75 | 0.0 | 3.2 | 0.00 | 0.64 | 0.53 | 53 | 1020.3 |
| 20260502231503 | 22 | 350 | 0.0 | 3.2 | 0.00 | 0.64 | 0.53 | 51 | 1020.3 |
| 20260502230003 | 22 | 109 | 0.0 | 4.8 | 0.03 | 0.64 | 0.53 | 53 | 1020.3 |
| 20260502224503 | 22 | 360 | 0.0 | 6.4 | 0.03 | 0.64 | 0.53 | 48 | 1020.2 |
| 20260502223006 | 23 | 352 | 0.0 | 3.2 | 0.03 | 0.64 | 0.53 | 48 | 1020.3 |
| 20260502221503 | 22 | 73 | 0.0 | 3.2 | 0.03 | 0.64 | 0.53 | 50 | 1020.5 |
| 20260502220003 | 22 | 107 | 1.6 | 8.0 | 0.00 | 0.61 | 0.51 | 58 | 1020.5 |
| 20260502214504 | 22 | 72 | 0.0 | 4.8 | 0.03 | 0.61 | 0.51 | 55 | 1020.6 |
| 20260502213004 | 23 | 120 | 1.6 | 8.0 | 0.03 | 0.64 | 0.51 | 45 | 1020.6 |
| 20260502211504 | 23 | 149 | 0.0 | 4.8 | 0.03 | 0.64 | 0.51 | 50 | 1020.9 |
| 20260502210004 | 22 | 28 | 1.6 | 11.3 | 0.05 | 0.64 | 0.51 | 51 | 1021.2 |
| 20260502204507 | 23 | 143 | 1.6 | 6.4 | 0.03 | 0.61 | 0.48 | 49 | 1021.4 |
| 20260502203013 | 23 | 336 | 1.6 | 8.0 | 0.05 | 0.61 | 0.48 | 42 | 1021.6 |
| 20260502201505 | 23 | 271 | 3.2 | 11.3 | 0.05 | 0.61 | 0.48 | 41 | 1021.6 |
| 20260502200004 | 22 | 352 | 3.2 | 16.1 | 0.03 | 0.58 | 0.46 | 50 | 1021.6 |
| 20260502194504 | 22 | 35 | 1.6 | 6.4 | 0.05 | 0.58 | 0.46 | 46 | 1021.6 |
| 20260502193003 | 22 | 26 | 1.6 | 6.4 | 0.03 | 0.56 | 0.43 | 50 | 1021.8 |
| 20260502191511 | 22 | 183 | 3.2 | 9.7 | 0.03 | 0.56 | 0.43 | 52 | 1021.7 |
| 20260502190006 | 22 | 352 | 1.6 | 11.3 | 0.05 | 0.56 | 0.43 | 52 | 1021.8 |
| 20260502184505 | 22 | 130 | 1.6 | 8.0 | 0.05 | 0.53 | 0.41 | 53 | 1021.9 |
| 20260502183005 | 21 | 103 | 1.6 | 6.4 | 0.05 | 0.53 | 0.41 | 56 | 1022.1 |
| 20260502181508 | 21 | 9 | 1.6 | 8.0 | 0.08 | 0.53 | 0.41 | 54 | 1022.4 |
| 20260502163018 | 18 | 255 | 3.2 | 11.3 | 0.05 | 0.46 | 0.30 | 65 | 1023.5 |
| 20260502161511 | 18 | 105 | 1.6 | 9.7 | 0.05 | 0.43 | 0.28 | 63 | 1023.6 |
| 20260502151512 | 15 | 307 | 1.6 | 12.9 | 0.03 | 0.38 | 0.23 | 73 | 1023.5 |
| 20260502123004 | 8 | 317 | 0.0 | 0.0 | 0.03 | 0.33 | 0.18 | 94 | 1021.7 |
| 20260502121506 | 8 | 317 | 0.0 | 0.0 | 0.00 | 0.30 | 0.15 | 94 | 1021.5 |
| 20260502114521 | 7 | 317 | 0.0 | 0.0 | 0.03 | 0.30 | 0.15 | 94 | 1021.1 |
| 20260502113021 | 8 | 317 | 0.0 | 0.0 | 0.03 | 0.30 | 0.15 | 94 | 1021.0 |
| 20260502111505 | 8 | 317 | 0.0 | 0.0 | 0.03 | 0.30 | 0.15 | 93 | 1020.8 |
| 20260502110008 | 8 | 317 | 0.0 | 0.0 | 0.03 | 0.28 | 0.13 | 93 | 1020.4 |
| 20260502104518 | 8 | 317 | 0.0 | 0.0 | 0.03 | 0.28 | 0.13 | 93 | 1020.3 |
| 20260502103021 | 8 | 317 | 0.0 | 0.0 | 0.03 | 0.28 | 0.13 | 93 | 1019.9 |
| 20260502101525 | 8 | 317 | 0.0 | 3.2 | 0.03 | 0.28 | 0.13 | 93 | 1019.6 |
| 20260502091524 | 9 | 15 | 1.6 | 4.8 | 0.03 | 0.25 | 0.10 | 94 | 1019.1 |
| 20260502071516 | 10 | 317 | 0.0 | 6.4 | 0.03 | 0.20 | 0.05 | 94 | 1019.1 |
| 20260502070024 | 10 | 309 | 0.0 | 3.2 | 0.03 | 0.23 | 0.05 | 94 | 1019.0 |
| 20260502064524 | 10 | 309 | 0.0 | 0.0 | 0.03 | 0.23 | 0.05 | 93 | 1019.1 |
| 20260502063026 | 10 | 309 | 0.0 | 0.0 | 0.03 | 0.23 | 0.05 | 93 | 1018.9 |
| 20260502061514 | 10 | 309 | 0.0 | 3.2 | 0.00 | 0.20 | 0.03 | 93 | 1019.0 |
| 20260502060004 | 10 | 346 | 0.0 | 3.2 | 0.03 | 0.20 | 0.03 | 93 | 1019.2 |
| 20260502054506 | 10 | 350 | 0.0 | 0.0 | 0.03 | 0.20 | 0.03 | 93 | 1019.1 |